FW1436 Weather Reports


time (UTC)temp
C
wind
direction
speed
KPH
gust
KPH
rain 1hr
cm
rain 24hr
cm
rain mn
cm
humidity
%
barometer
mb
20260508220016 11 51 0.0 0.0 0.00 0.00 0.00 82 1009.2
20260508214513 10 10 0.0 0.0 0.00 0.00 0.00 83 1009.3
20260508213012 11 10 0.0 0.0 0.00 0.00 0.00 82 1009.4
20260508211611 11 79 0.0 0.0 0.00 0.00 0.00 81 1009.3
20260508210012 11 53 0.0 0.0 0.00 0.00 0.00 81 1009.0
20260508204511 11 103 0.0 0.0 0.00 0.00 0.00 80 1009.0
20260508203010 12 103 0.0 0.0 0.00 0.00 0.00 80 1009.0
20260508201510 12 103 0.0 0.0 0.00 0.00 0.00 79 1008.7
20260508200011 12 104 0.0 3.2 0.00 0.00 0.00 76 1008.6
20260508194509 13 84 0.0 4.8 0.00 0.00 0.00 74 1008.4
20260508193008 13 99 0.0 4.8 0.00 0.00 0.00 72 1008.3
20260508191507 14 72 0.0 0.0 0.00 0.00 0.00 69 1008.1
20260508190008 15 71 0.0 0.0 0.00 0.00 0.00 65 1008.1
20260508184507 16 76 0.0 3.2 0.00 0.00 0.00 64 1008.0
20260508183007 16 77 0.0 3.2 0.00 0.00 0.00 62 1007.9
20260508181505 17 24 0.0 3.2 0.00 0.00 0.00 59 1007.9
20260508180004 17 4 0.0 4.8 0.00 0.00 0.00 59 1007.9
20260508174503 17 316 0.0 0.0 0.00 0.00 0.00 63 1008.0
20260508173059 16 289 0.0 4.8 0.00 0.00 0.00 63 1008.1
20260508171559 15 285 0.0 3.2 0.00 0.00 0.00 66 1008.1
20260508170100 16 289 1.6 8.0 0.00 0.00 0.00 65 1008.0
20260508164604 16 329 3.2 9.7 0.00 0.00 0.00 64 1008.1
20260508163059 16 327 1.6 8.0 0.00 0.00 0.00 65 1008.2
20260508161554 13 39 0.0 6.4 0.00 0.00 0.00 77 1008.3
20260508160054 13 329 0.0 6.4 0.00 0.00 0.00 83 1008.3
20260508154554 12 326 1.6 11.3 0.00 0.00 0.00 89 1008.4
20260508153051 11 309 3.2 20.9 0.00 0.00 0.00 90 1008.4
20260508151559 12 277 6.4 22.5 0.00 0.00 0.00 85 1009.1
20260508150059 14 263 4.8 12.9 0.00 0.00 0.00 76 1008.9
20260508144616 15 236 0.0 3.2 0.00 0.00 0.00 69 1008.6
20260508143053 16 224 0.0 11.3 0.00 0.00 0.00 68 1008.6
20260508141555 16 245 3.2 8.0 0.00 0.00 0.00 69 1008.9
20260508140049 15 123 0.0 9.7 0.00 0.00 0.00 71 1008.8
20260508134546 15 71 0.0 4.8 0.00 0.00 0.00 74 1008.8
20260508133105 13 75 0.0 9.7 0.00 0.00 0.00 78 1009.2
20260508131535 13 49 1.6 11.3 0.00 0.00 0.00 82 1009.2
20260508130031 12 102 4.8 9.7 0.00 0.00 0.00 86 1009.7
20260508124533 11 80 0.0 6.4 0.00 0.00 0.00 93 1009.7
20260508123028 11 61 0.0 3.2 0.00 0.00 0.00 94 1009.9
20260508121534 10 109 0.0 4.8 0.00 0.00 0.00 93 1010.3
20260508120027 10 27 1.6 4.8 0.00 0.00 0.00 94 1010.3
20260508114525 10 84 1.6 6.4 0.00 0.00 0.00 94 1010.3
20260508113024 10 89 0.0 3.2 0.00 0.00 0.00 94 1010.5
20260508111524 10 79 0.0 4.8 0.00 0.00 0.00 93 1010.5
20260508110042 10 89 0.0 3.2 0.00 0.00 0.00 93 1010.7
20260508104521 10 56 0.0 0.0 0.00 0.00 0.00 92 1010.6
20260508103021 10 54 0.0 1.6 0.00 0.00 0.00 91 1010.9
20260508101521 11 290 0.0 1.6 0.00 0.00 0.00 85 1010.9
20260508100021 11 138 0.0 6.4 0.00 0.00 0.00 81 1010.4
20260508094518 11 83 0.0 4.8 0.00 0.00 0.00 80 1010.4
20260508093017 11 124 0.0 3.2 0.00 0.00 0.00 79 1010.4
20260508091516 11 135 0.0 3.2 0.00 0.00 0.00 78 1010.7
20260508090024 11 205 0.0 6.4 0.00 0.00 0.00 78 1010.8
20260508084515 11 64 4.8 11.3 0.00 0.00 0.00 78 1010.1
20260508083012 11 142 4.8 9.7 0.00 0.00 0.00 79 1010.0
20260508081510 11 101 3.2 8.0 0.00 0.00 0.00 80 1010.2
20260508080011 10 94 1.6 6.4 0.00 0.00 0.00 82 1010.0
20260508074515 10 83 3.2 6.4 0.00 0.00 0.00 83 1010.3
20260508073107 10 103 0.0 6.4 0.00 0.00 0.00 86 1010.2
20260508071605 9 110 1.6 6.4 0.00 0.00 0.00 86 1009.9
20260508070058 9 131 0.0 6.4 0.00 0.00 0.00 86 1009.9
20260508064557 9 121 0.0 4.8 0.00 0.00 0.00 86 1009.7
20260508063054 9 96 1.6 9.7 0.00 0.00 0.00 86 1009.6
20260508061553 8 153 0.0 4.8 0.00 0.00 0.00 87 1009.8
20260508060051 8 65 3.2 8.0 0.00 0.00 0.00 87 1009.4
20260508054552 8 72 0.0 4.8 0.00 0.00 0.00 87 1009.7
20260508053113 8 61 0.0 0.0 0.00 0.00 0.00 87 1009.8
20260508051549 8 96 1.6 4.8 0.00 0.00 0.00 87 1009.8
20260508050048 8 85 0.0 3.2 0.00 0.00 0.00 87 1009.7
20260508044551 8 94 0.0 3.2 0.00 0.00 0.00 87 1009.5
20260508043047 8 122 0.0 3.2 0.00 0.00 0.00 87 1009.3
20260508041611 8 96 0.0 0.0 0.00 0.00 0.00 88 1009.1
20260508040105 8 96 0.0 0.0 0.00 0.00 0.00 87 1009.1
20260508034548 8 96 0.0 0.0 0.00 0.00 0.00 87 1009.0
20260508033045 8 95 0.0 0.0 0.00 0.00 0.00 88 1009.1
20260508031544 8 95 0.0 0.0 0.00 0.00 0.00 88 1009.1
20260508030044 7 95 0.0 0.0 0.00 0.00 0.00 88 1009.2
20260508024546 8 95 0.0 1.6 0.00 0.00 0.00 88 1009.1
20260508023041 8 48 0.0 1.6 0.00 0.00 0.00 88 1008.9
20260508021542 8 56 0.0 1.6 0.00 0.00 0.00 88 1009.1
20260508020045 8 53 0.0 1.6 0.00 0.00 0.00 88 1009.3
20260508014536 8 79 0.0 0.0 0.00 0.00 0.00 88 1009.8
20260508013034 7 79 0.0 0.0 0.00 0.00 0.00 88 1009.9
20260508011536 8 79 0.0 4.8 0.00 0.00 0.00 87 1009.7
20260508004532 8 119 0.0 8.0 0.00 0.00 0.00 87 1010.1
20260508003033 8 124 0.0 1.6 0.00 0.00 0.00 87 1010.3
20260508001526 8 112 0.0 0.0 0.00 0.00 0.00 86 1010.4
20260508000025 8 89 0.0 1.6 0.00 0.00 0.00 87 1010.3
20260507234522 8 91 0.0 1.6 0.00 0.00 0.00 86 1010.4
20260507233032 8 97 0.0 0.0 0.00 0.00 0.00 85 1010.8
20260507231519 8 63 0.0 0.0 0.00 0.00 0.00 85 1010.9
20260507230018 8 63 0.0 0.0 0.00 0.00 0.00 84 1010.9
20260507224521 8 63 0.0 1.6 0.00 0.00 0.00 85 1010.9
20260507223017 8 63 0.0 0.0 0.00 0.00 0.00 85 1010.9
20260507221520 8 63 0.0 0.0 0.00 0.00 0.00 85 1010.8